COSMOS 2251 DEB, 37533

Orbit data source: Space-Track

COSMOS 2251 DEB, 37533 is space debris in LEO originally from a launch on Wed, 16 Jun 1993 UTC launched from the Plesetsk Missile And Space Complex (PKMTR). The debris from Iridium 33, an American commercial communications satellite, has been tracked extensively since its accidental collision with the defunct Russian satellite Cosmos 2251 in 2009. This event, occurring at high speed in low Earth orbit (LEO), generated thousands of pieces of space debris, significantly increasing the risk of further collisions. The Iridium 33 debris cloud has impacted space traffic management and orbital debris mitigation strategies, making it a subject of ongoing study in space situational awareness.

Loading next visibility...
Identifier
37533, 1993-036BNN
Orbit
LEO
Country
Flag of CISCIS
Related business
Manufacturer
Unknown
Mission
Spacecraft
Bus & Motor
Unknown
Mass
Unknown
Launch date (UTC)
1993-06-16 (33 years ago)
Launch vehicle
Unknown
Launch site
Plesetsk Missile And Space Complex (PKMTR)
Object type
Payload
Rocket body
Debris
Shape & HBR
Unknown shape, 0.1 m
Radar Cross Section
Small (<0.1 m²)

Expand to show TLE details & history
Last TLE update: 2 weeks ago

TLE from 2 weeks ago
0 COSMOS 2251 DEB
1 37533U 93036BNN 26148.57883982  .00001908  00000-0  92086-3 0  9999
2 37533  74.0665 257.4303 0156366 274.6200  83.7097 14.13115358652776
Epoch: 2026-05-28T13:53Z
TLE epoch observation values (Epoch: 2026-05-28T13:53:31.760Z)
Latitude
0.00007°
Longitude
162.92643°
Altitude
840.683 km
Speed
7.438 km/s
True Right ascension
17h 09m 43s
True Declination
0° 00' 00"
Sunlit
Object was in full shadow at epoch
Visualization orbit readout
Latitude
Unknown
Longitude
Unknown
Altitude
Unknown
Speed
Unknown
Apparent Right ascension
Unknown
Apparent Declination
Unknown
Sunlit
N/A
Visualization observer readout
Local Sidereal Time
21:02:16
Azimuth
Unknown
Elevation
Unknown
Doppler factor
Unknown
Orbital elements
Apogee altitude
959.343 km
Perigee altitude
733.41 km
Semi-major axis
7,224.514 km
Eccentricity
0.01564
Inclination
74.0665°
RAAN
257.4303°
Arg. of periapsis
274.62°
True anomaly
85.49427°
Mean anomaly
83.7097°
Eccentric anomaly
84.60164°
Mean motion
3.53452 °/min
Orbital period
101.85 mins
BSTAR
0.00092086

Documentation

Showing up to 5 results
|